Location: Sternwarte Stuttgart
(48.7670°N, 9.1830°E)
Time: 03:53:03
(UTC+02:00)

YAOGAN 1 - Pass Details

Date: 24 January 2019
Orbit: 619 x 621 km, 98.0° (Epoch: 21 April)

Event Time Altitude Azimuth Distance (km) Brightness Sun altitude
Rises 07:06:10 0° 20° (NNE) 2,910 6.0 -9.5°
Reaches altitude 10° 07:08:30 10° 28° (NNE) 1,999 5.3 -9.1°
Maximum altitude 07:12:34 39° 98° (E) 938 4.2 -8.5°
Drops below altitude 10° 07:16:38 10° 167° (SSE) 1,985 5.6 -7.8°
Sets 07:18:55 0° 175° (S) 2,886 6.4 -7.5°
